FW8431 Weather Reports


Display with metric or nautical units.
time (UTC)temp
F
wind
direction
speed
MPH
gust
MPH
rain 1hr
in
rain 24hr
in
rain mn
in
humidity
%
barometer
mb
20260901140109 68 0 0.0 3.0 0.00 0.01 0.01 98 1026.4
20260901134557 67 0 0.0 2.0 0.00 0.01 0.01 98 1026.4
20260901133105 66 246 0.0 0.0 0.00 0.01 0.01 98 1026.4
20260901131602 65 0 0.0 0.0 0.00 0.01 0.01 98 1026.5
20260901130058 64 0 0.0 1.0 0.00 0.01 0.01 98 1026.5
20260901124605 64 246 0.0 2.0 0.00 0.01 0.01 98 1026.3
20260901123055 63 0 0.0 0.0 0.00 0.01 0.01 98 1026.4
20260901121606 63 0 0.0 0.0 0.00 0.01 0.01 98 1026.3
20260901120116 63 0 0.0 0.0 0.01 0.01 0.01 98 1026.2
20260901114601 62 0 0.0 0.0 0.01 0.01 0.01 98 1025.9
20260901113118 62 0 0.0 0.0 0.01 0.01 0.01 98 1025.7
20260901111558 63 0 0.0 0.0 0.01 0.01 0.01 97 1025.6
20260901110108 63 0 0.0 0.0 0.00 0.00 0.00 97 1025.3
20260901104603 63 0 0.0 0.0 0.00 0.00 0.00 98 1025.1
20260901103101 63 0 0.0 0.0 0.00 0.00 0.00 97 1025.1
20260901101608 63 0 0.0 0.0 0.00 0.00 0.00 98 1025.2
20260901094559 63 0 0.0 0.0 0.00 0.00 0.00 98 1024.8
20260901093103 63 0 0.0 0.0 0.00 0.00 0.00 98 1024.8
20260901091555 63 0 0.0 0.0 0.00 0.00 0.00 97 1024.9
20260901090056 63 0 0.0 0.0 0.00 0.00 0.00 97 1024.9
20260901084602 63 0 0.0 0.0 0.00 0.00 0.00 97 1025.1
20260901083059 64 0 0.0 0.0 0.00 0.00 0.00 97 1024.9
20260901081556 64 0 0.0 0.0 0.00 0.00 0.00 97 1025.3
20260901080059 65 0 0.0 0.0 0.00 0.00 0.00 97 1025.3
20260901074559 65 0 0.0 0.0 0.00 0.00 0.00 97 1025.3
20260901073102 65 0 0.0 0.0 0.00 0.00 0.00 97 1025.3
20260901071556 65 0 0.0 0.0 0.00 0.00 0.00 97 1025.5
20260901070058 65 0 0.0 0.0 0.00 0.00 0.00 97 1025.5
20260901064600 65 0 0.0 0.0 0.00 0.00 0.00 97 1025.5
20260901063113 65 0 0.0 0.0 0.00 0.00 0.00 97 1025.4
20260901061602 65 0 0.0 0.0 0.00 0.00 0.00 97 1025.6
20260901060059 65 0 0.0 0.0 0.00 0.00 0.00 97 1025.8
20260901054553 65 0 0.0 0.0 0.00 0.00 0.00 96 1025.7
20260901053101 65 0 0.0 0.0 0.00 0.00 0.00 96 1025.8
20260901051615 65 0 0.0 0.0 0.00 0.00 0.00 96 1025.8
20260901050104 65 0 0.0 0.0 0.00 0.00 0.00 96 1025.9
20260901044602 66 0 0.0 0.0 0.00 0.00 0.00 96 1025.9
20260901043058 66 0 0.0 0.0 0.00 0.00 0.00 96 1025.5
20260901041559 66 0 0.0 0.0 0.00 0.00 0.00 96 1025.5
20260901040054 66 0 0.0 0.0 0.00 0.00 0.00 96 1025.5
20260901034607 66 0 0.0 0.0 0.00 0.00 0.00 95 1025.3
20260901033111 67 0 0.0 0.0 0.00 0.00 0.00 95 1025.6
20260901031555 66 0 0.0 1.0 0.00 0.00 0.00 94 1025.6
20260901030051 67 246 0.0 1.0 0.00 0.00 0.00 94 1025.3
20260901024602 67 0 0.0 0.0 0.00 0.00 0.00 94 1025.4
20260901023059 67 0 0.0 2.0 0.00 0.00 0.00 93 1025.3
20260901021555 67 0 0.0 2.0 0.00 0.00 0.00 92 1025.4
20260901020053 68 0 0.0 3.0 0.00 0.00 0.00 92 1025.2
20260901014609 68 0 0.0 1.0 0.00 0.00 0.00 91 1025.3
20260901013055 68 0 0.0 2.0 0.00 0.00 0.00 91 1025.2
20260901011556 68 0 0.0 0.0 0.00 0.00 0.00 90 1024.9
20260901010056 69 0 0.0 0.0 0.00 0.00 0.00 90 1024.7
20260901004617 69 0 0.0 0.0 0.00 0.00 0.00 89 1024.4
20260901003059 70 0 0.0 0.0 0.00 0.00 0.00 88 1024.3
20260901001605 71 0 0.0 0.0 0.00 0.00 0.00 88 1024.5
20260901000110 72 0 0.0 0.0 0.00 0.00 0.00 87 1024.4
20260831234606 72 0 0.0 1.0 0.00 0.00 0.00 87 1024.5
20260831233100 73 0 0.0 1.0 0.00 0.00 0.00 86 1024.4
20260831231606 74 246 1.0 2.0 0.00 0.00 0.00 85 1024.4
20260831230057 74 0 0.0 0.0 0.00 0.00 0.00 83 1024.5
20260831224605 76 246 0.0 2.0 0.00 0.00 0.00 80 1024.5
20260831223107 79 0 0.0 0.0 0.00 0.00 0.00 77 1024.5
20260831221557 81 0 0.0 2.0 0.00 0.00 0.00 72 1024.6
20260831220054 82 0 0.0 2.0 0.00 0.00 0.00 68 1024.5
20260831214559 80 246 0.0 4.0 0.00 0.00 0.00 72 1024.5
20260831213058 79 345 0.0 3.0 0.00 0.00 0.00 77 1024.6
20260831211553 79 0 0.0 2.0 0.00 0.00 0.00 76 1024.7
20260831210100 79 0 0.0 4.0 0.00 0.00 0.00 72 1024.6
20260831204555 81 0 0.0 3.0 0.00 0.00 0.00 71 1024.8
20260831203102 82 0 1.0 3.0 0.00 0.00 0.00 65 1024.7
20260831201558 83 348 1.0 7.0 0.00 0.00 0.00 63 1024.7
20260831200058 82 78 2.0 5.0 0.00 0.00 0.00 66 1025.1
20260831194638 81 24 1.0 4.0 0.00 0.00 0.00 71 1025.3
20260831193059 81 41 1.0 5.0 0.00 0.00 0.00 67 1025.4
20260831191602 81 329 2.0 6.0 0.00 0.00 0.00 68 1025.4
20260831190117 81 219 2.0 6.0 0.00 0.00 0.00 64 1025.6
20260831184611 79 107 0.0 3.0 0.00 0.00 0.00 72 1025.8
20260831183057 77 36 0.0 3.0 0.00 0.00 0.00 75 1025.9
20260831181600 77 36 0.0 3.0 0.00 0.00 0.00 76 1025.9
20260831180105 77 36 1.0 3.0 0.00 0.00 0.00 76 1026.1
20260831174631 79 124 0.0 10.0 0.00 0.00 0.00 75 1026.1
20260831173056 79 171 3.0 8.0 0.00 0.00 0.00 71 1026.1
20260831171607 78 0 2.0 5.0 0.00 0.00 0.00 78 1026.2
20260831164603 77 161 2.0 6.0 0.00 0.00 0.00 78 1026.4
20260831163107 78 192 1.0 6.0 0.00 0.00 0.00 77 1026.6
20260831161608 79 227 2.0 5.0 0.00 0.00 0.00 78 1026.7
20260831160104 77 242 1.0 5.0 0.00 0.00 0.00 79 1026.6
20260831154627 76 247 2.0 5.0 0.00 0.00 0.00 83 1026.6
20260831153112 74 0 1.0 3.0 0.00 0.00 0.00 85 1026.7
20260831151613 73 0 0.0 3.0 0.00 0.00 0.00 87 1026.9
20260831150104 71 0 0.0 6.0 0.00 0.00 0.00 89 1026.7
20260831144600 70 0 2.0 4.0 0.00 0.00 0.00 90 1026.9
20260831143101 69 0 0.0 3.0 0.00 0.00 0.00 94 1026.8
20260831141607 67 0 0.0 2.0 0.00 0.00 0.00 98 1026.7